Regional Weather Roundup
Issued by NWS

Home | Current Version | Previous Version | Text Only | Print | Product List | Glossary Off
Versions: 1 2 3 4 5 6 7 8 9 10 11 12 13 14 15 16 17 18 19 20 21 22 23 24 25 26 27 28 29 30 31 32 33 34 35 36 37 38 39 40 41 42 43 44 45 46 47 48 49 50

000
ASUS43 KOAX 190202
RWRNE

WEATHER ROUNDUP FOR NEBRASKA
NATIONAL WEATHER SERVICE OMAHA NE
900 PM CDT SAT APR 18 2015

NOTES: SATELLITE DATA IS BEING USED TO AUGMENT CLOUD COVER ABOVE
       12000 FEET.
       "FAIR" INDICATES FEW OR NO CLOUDS BELOW 12,000 FEET WITH NO
       SIGNIFICANT WEATHER AND/OR OBSTRUCTIONS TO VISIBILITY.

  * THESE STATIONS DO NOT REPORT WEATHER SUCH AS RAIN...SNOW OR FOG.

NEZ001>004-019>022-054>056-190300-
NEBRASKA PANHANDLE

CITY           SKY/WX    TMP DP  RH WIND       PRES   REMARKS
SCOTTSBLUFF    CLOUDY    49  32  52 W9        29.92R
ALLIANCE       CLOUDY    49  43  80 N17       29.89R
CHADRON        CLOUDY    49  44  83 NW6       29.93S
SIDNEY         CLOUDY    45  40  82 N7        29.88S
$$

NEZ057>060-069>072-079>082-190300-
SOUTHWEST NEBRASKA

CITY           SKY/WX    TMP DP  RH WIND       PRES   REMARKS
NORTH PLATTE   TSTM      52  45  77 SW13G23   29.82R
IMPERIAL       CLOUDY    51  43  74 NW14      29.81R
LEXINGTON      TSTM      54  50  86 S16       29.82R
MCCOOK         CLOUDY    55  45  68 SE7G24    29.77S
$$

NEZ005>010-023>029-035>040-094-190300-
NORTH CENTRAL NEBRASKA

CITY           SKY/WX    TMP DP  RH WIND       PRES   REMARKS
VALENTINE      CLOUDY    55  50  83 N9        29.85R
AINSWORTH      CLOUDY    57  53  86 NE7       29.82R
BROKEN BOW     CLOUDY    60  52  74 NE6       29.77S
ORD            CLOUDY    62  53  72 SE6       29.77R
$$

NEZ041-046>049-061>064-073>077-083>087-190300-
SOUTH CENTRAL NEBRASKA

CITY           SKY/WX    TMP DP  RH WIND       PRES   REMARKS
GRAND ISLAND   TSTM      54  47  77 SW25G36   29.84R
HASTINGS       LGT RAIN  55  49  80 NW9       29.84R
KEARNEY *      CLOUDY    54  46  76 SE14      29.84R
YORK           CLOUDY    63  57  82 SE12      29.81R
$$

NEZ011>018-030>034-042>045-190300-
NORTHEAST NEBRASKA

CITY           SKY/WX    TMP DP  RH WIND       PRES   REMARKS
BLAIR          CLOUDY    57  54  89 SE7       29.82F
COLUMBUS *     CLOUDY    61  54  77 SE12      29.82S
FREMONT        CLOUDY    60  55  83 SE9       29.83S
TEKAMAH        CLOUDY    59  55  87 S12       29.82S
$$

NEZ050>053-065>068-078-088>093-190300-
SOUTHEAST NEBRASKA

CITY           SKY/WX    TMP DP  RH WIND       PRES   REMARKS
LINCOLN        MOCLDY    61  56  83 SE13      29.82F
OMAHA EPPLEY   CLOUDY    58  56  93 SE8       29.83S
FALLS CITY     PTCLDY    57  55  93 CALM      29.82F
PLATTSMOUTH    CLOUDY    59  56  89 SE6       29.84S
$$

NEZ044-045-051>053-067-190300-
OMAHA AREA

CITY           SKY/WX    TMP DP  RH WIND       PRES   REMARKS
OMAHA EPPLEY   CLOUDY    58  56  93 SE8       29.83S
BLAIR          CLOUDY    57  54  89 SE7       29.82F
FREMONT        CLOUDY    60  55  83 SE9       29.83S
OFFUTT AFB     CLOUDY    59  57  91 SE7       29.83S
PLATTSMOUTH    CLOUDY    59  56  89 SE6       29.84S
$$



USA.gov is the U.S. government's official web portal to all federal, state and local government web resources and services.